Quillayute, WA

2:14 AM PDT on May 25, 2017 (GMT -0700)
Quillayute

Weather History for KUIL - June, 2013

Change the Weather History Date:

Saturday, June 15, 2013

  Actual Average Record
Temperature  
Mean Temperature 60 °F 55 °F  
Max Temperature 75 °F 63 °F 80 °F (1969)
Min Temperature 45 °F 48 °F 38 °F (1989)
Degree Days  
Heating Degree Days 5 10  
Month to date heating degree days 124 160  
Since 1 June heating degree days 124 160  
Since 1 July heating degree days 5193 5628  
Cooling Degree Days 0 0  
Month to date cooling degree days 0 0  
Year to date cooling degree days 3 1  
Since 1 June cooling degree days 0 0  
Growing Degree Days 10 (Base 50)    
Moisture  
Dew Point 49 °F    
Average Humidity 70    
Maximum Humidity 93    
Minimum Humidity 47    
Precipitation  
Precipitation 0.00 in 0.11 in 1.52 in (1976)
Month to date precipitation 0.67 2.00  
Year to date precipitation 56.57 50.75  
Sea Level Pressure  
Sea Level Pressure 29.98 in    
Wind  
Wind Speed 3 mph (WNW)    
Max Wind Speed 14 mph    
Max Gust Speed 16 mph    
Visibility 8 miles    
Events      
T = Trace of Precipitation, MM = Missing Value Source: NWS Daily Summary

Daily Weather History Graph

Daily Weather History Graph

Search for Another Location

Airport or City:

Trip Planner

Search our weather history database for the weather conditions in past years. The results will help you decide how hot, cold, wet, or windy it might be!

Date:

Astronomy

Jun. 15, 2013 Rise Set
Actual Time 5:18 AM PDT 9:19 PM PDT
Civil Twilight 4:37 AM PDT 10:00 PM PDT
Nautical Twilight 3:40 AM PDT 10:57 PM PDT
Astronomical Twilight 2:04 AM PDT 12:34 AM PDT
Moon 12:27 PM PDT (6/15) 12:31 AM PDT (6/15)
Length of Visible Light 17h 23m
Length of Day
16h 01m
Waxing Crescent, 40% of the Moon is Illuminated
Jun 15
Waxing Crescent
Jun 16
First Quarter
Jun 23
Full
Jun 29
Last Quarter
Jul 8
New

Hourly Weather History & Observations

Time (PDT) Temp. Windchill Dew Point Humidity Pressure Visibility Wind Dir Wind Speed Gust Speed Precip Events Conditions
12:53 AM 51.1 °F - 48.0 °F 89% 30.05 in 8.0 mi Calm Calm - N/A   Clear
1:53 AM 50.0 °F - 46.0 °F 86% 30.03 in 9.0 mi NE 3.5 mph - N/A   Clear
2:53 AM 46.9 °F - 42.1 °F 83% 30.01 in 9.0 mi Calm Calm - N/A   Clear
3:53 AM 46.9 °F - 44.1 °F 90% 30.00 in 8.0 mi Calm Calm - N/A   Clear
4:53 AM 45.0 °F - 41.0 °F 86% 29.99 in 8.0 mi Calm Calm - N/A   Clear
5:53 AM 46.0 °F 44.8 °F 42.1 °F 86% 29.99 in 7.0 mi NE 3.5 mph - N/A   Clear
6:53 AM 51.1 °F - 46.9 °F 86% 29.99 in 7.0 mi Calm Calm - N/A   Clear
7:53 AM 55.9 °F - 50.0 °F 80% 29.98 in 7.0 mi Calm Calm - N/A   Clear
8:53 AM 62.1 °F - 52.0 °F 70% 29.98 in 8.0 mi Calm Calm - N/A   Clear
9:53 AM 66.0 °F - 53.1 °F 63% 29.97 in 8.0 mi NW 3.5 mph - N/A   Clear
10:53 AM 71.1 °F - 52.0 °F 51% 29.96 in 8.0 mi Variable 3.5 mph - N/A   Clear
11:53 AM 72.0 °F - 50.0 °F 46% 29.95 in 8.0 mi NE 3.5 mph - N/A   Clear
12:53 PM 73.0 °F - 54.0 °F 51% 29.95 in 8.0 mi SW 5.8 mph - N/A   Clear
1:53 PM 73.9 °F - 53.1 °F 48% 29.95 in 7.0 mi Variable 5.8 mph - N/A   Clear
2:53 PM 71.1 °F - 51.1 °F 49% 29.96 in 7.0 mi West 10.4 mph - N/A   Clear
3:53 PM 70.0 °F - 52.0 °F 53% 29.96 in 7.0 mi West 8.1 mph - N/A   Clear
4:53 PM 70.0 °F - 50.0 °F 49% 29.96 in 7.0 mi West 9.2 mph - N/A   Clear
5:53 PM 70.0 °F - 50.0 °F 49% 29.96 in 7.0 mi West 5.8 mph - N/A   Clear
6:53 PM 69.1 °F - 50.0 °F 51% 29.96 in 7.0 mi West 6.9 mph - N/A   Clear
7:53 PM 63.0 °F - 48.0 °F 58% 29.98 in 7.0 mi Variable 6.9 mph - N/A   Partly Cloudy
8:53 PM 61.0 °F - 48.9 °F 64% 30.00 in 7.0 mi NW 4.6 mph - N/A   Clear
9:53 PM 59.0 °F - 48.9 °F 69% 30.01 in 8.0 mi Calm Calm - N/A   Clear
10:53 PM 55.0 °F - 48.0 °F 77% 30.02 in 8.0 mi Calm Calm - N/A   Clear
11:53 PM 53.1 °F - 46.0 °F 77% 30.03 in 8.0 mi Calm Calm - N/A   Clear